FW4226 Weather Reports


time (UTC)temp
C
wind
direction
speed
KPH
gust
KPH
rain 1hr
cm
rain 24hr
cm
rain mn
cm
humidity
%
barometer
mb
20260505183500 13 305 1.6 8.0 0.00 0.00 0.00 72 1012.5
20260505183000 13 10 1.6 8.0 0.00 0.00 0.00 72 1012.4
20260505182500 13 26 1.6 4.8 0.00 0.00 0.00 72 1012.4
20260505182001 13 341 1.6 6.4 0.00 0.00 0.00 72 1012.4
20260505181500 13 292 1.6 4.8 0.00 0.00 0.00 72 1012.4
20260505181001 13 330 1.6 9.7 0.00 0.00 0.00 72 1012.4
20260505180500 13 322 3.2 9.7 0.00 0.00 0.00 72 1012.4
20260505180008 13 308 1.6 8.0 0.00 0.00 0.00 72 1012.4
20260505175501 13 56 1.6 6.4 0.00 0.00 0.00 73 1012.5
20260505174501 13 5 0.0 4.8 0.00 0.00 0.00 74 1012.4
20260505174002 13 25 0.0 8.0 0.00 0.00 0.00 73 1012.5
20260505173500 13 343 0.0 1.6 0.00 0.00 0.00 74 1012.4
20260505172501 13 333 1.6 3.2 0.00 0.00 0.00 73 1012.5
20260505172002 13 302 1.6 8.0 0.00 0.00 0.00 73 1012.5
20260505171459 13 323 0.0 8.0 0.00 0.00 0.00 73 1012.6
20260505171007 13 329 0.0 3.2 0.00 0.00 0.00 74 1012.5
20260505170501 13 22 1.6 4.8 0.00 0.00 0.00 73 1012.6
20260505170006 13 306 0.0 4.8 0.00 0.00 0.00 74 1012.6
20260505165500 13 356 0.0 3.2 0.00 0.00 0.00 74 1012.7
20260505165000 13 342 1.6 3.2 0.00 0.00 0.00 74 1012.6
20260505163500 13 30 0.0 4.8 0.00 0.00 0.00 73 1012.8
20260505163000 13 22 0.0 4.8 0.00 0.00 0.00 73 1012.7
20260505162500 13 27 0.0 3.2 0.00 0.00 0.00 72 1012.6
20260505162000 13 15 0.0 1.6 0.00 0.00 0.00 73 1012.6
20260505161459 13 36 0.0 1.6 0.00 0.00 0.00 73 1012.6
20260505161000 13 36 0.0 4.8 0.00 0.00 0.00 73 1012.6
20260505160500 13 12 0.0 4.8 0.00 0.00 0.00 73 1012.6
20260505153000 14 353 1.6 4.8 0.00 0.00 0.00 71 1012.7
20260505152500 14 48 1.6 4.8 0.00 0.00 0.00 71 1012.7
20260505152000 14 339 1.6 4.8 0.00 0.00 0.00 71 1012.7
20260505151000 14 29 3.2 11.3 0.00 0.00 0.00 72 1012.7
20260505150459 14 347 1.6 11.3 0.00 0.00 0.00 73 1012.8
20260505140500 15 313 1.6 9.7 0.00 0.00 0.00 72 1013.0
20260505124959 15 36 1.6 8.0 0.00 0.00 0.00 66 1013.1
20260505124459 15 322 1.6 8.0 0.00 0.00 0.00 68 1013.1
20260505124000 15 11 1.6 8.0 0.00 0.00 0.00 67 1013.1
20260505123459 15 288 1.6 9.7 0.00 0.00 0.00 68 1013.0
20260505123000 15 43 3.2 9.7 0.00 0.00 0.00 68 1013.1
20260505122459 15 306 1.6 9.7 0.00 0.00 0.00 69 1013.1
20260505121459 15 12 3.2 8.0 0.00 0.00 0.00 71 1013.2
20260505120959 15 289 3.2 8.0 0.00 0.00 0.00 71 1013.2
20260505120459 15 311 3.2 8.0 0.00 0.00 0.00 71 1013.1
20260505120006 15 7 3.2 9.7 0.00 0.00 0.00 71 1013.2
20260505115500 15 339 3.2 6.4 0.00 0.00 0.00 73 1013.3
20260505115000 15 17 3.2 8.0 0.00 0.00 0.00 71 1013.2
20260505114459 15 332 3.2 8.0 0.00 0.00 0.00 70 1013.2
20260505113959 15 332 1.6 8.0 0.00 0.00 0.00 72 1013.1
20260505113458 15 12 3.2 6.4 0.00 0.00 0.00 70 1013.2
20260505113000 15 6 1.6 8.0 0.00 0.00 0.00 70 1013.2
20260505112459 15 326 1.6 4.8 0.00 0.00 0.00 70 1013.3
20260505112000 15 322 1.6 4.8 0.00 0.00 0.00 71 1013.3
20260505111459 15 278 1.6 6.4 0.00 0.00 0.00 68 1013.3
20260505111000 14 69 1.6 6.4 0.00 0.00 0.00 68 1013.5
20260505110459 14 359 1.6 6.4 0.00 0.00 0.00 67 1013.4
20260505102000 15 301 1.6 6.4 0.00 0.00 0.00 74 1013.7
20260505101459 14 29 1.6 8.0 0.00 0.00 0.00 76 1013.6
20260505100959 13 333 3.2 8.0 0.00 0.00 0.00 74 1013.7
20260505100005 14 348 1.6 8.0 0.00 0.00 0.00 74 1013.7
20260505095500 13 297 1.6 12.9 0.00 0.00 0.00 76 1013.7
20260505094959 13 23 1.6 12.9 0.00 0.00 0.00 76 1013.8
20260505094500 13 38 1.6 8.0 0.00 0.00 0.00 76 1013.9
20260505094000 13 359 3.2 8.0 0.00 0.00 0.00 76 1013.9
20260505093500 13 23 3.2 12.9 0.00 0.00 0.00 77 1014.0
20260505093000 13 59 3.2 12.9 0.00 0.00 0.00 76 1014.0
20260505092459 13 73 1.6 6.4 0.00 0.00 0.00 78 1013.9
20260505092000 12 30 1.6 4.8 0.00 0.00 0.00 79 1014.0
20260505091458 12 52 1.6 4.8 0.00 0.00 0.00 81 1014.0
20260505090500 12 285 1.6 8.0 0.00 0.00 0.00 81 1014.0
20260505090004 12 19 3.2 6.4 0.00 0.00 0.00 82 1014.0
20260505085500 12 27 1.6 6.4 0.00 0.00 0.00 82 1014.1
20260505084959 12 29 1.6 6.4 0.00 0.00 0.00 81 1014.1
20260505084000 12 289 1.6 3.2 0.00 0.00 0.00 83 1014.2
20260505083458 11 359 1.6 3.2 0.00 0.00 0.00 84 1014.1
20260505083001 11 340 1.6 4.8 0.00 0.00 0.00 85 1014.2
20260505082459 11 2 1.6 4.8 0.00 0.00 0.00 84 1014.3
20260505082000 11 14 1.6 6.4 0.00 0.00 0.00 85 1014.3
20260505081500 11 16 3.2 6.4 0.00 0.00 0.00 85 1014.3
20260505080959 11 13 3.2 11.3 0.00 0.00 0.00 87 1014.2
20260505080459 11 40 3.2 6.4 0.00 0.00 0.00 88 1014.2
20260505074958 10 18 1.6 3.2 0.00 0.00 0.00 90 1014.2
20260505073958 10 40 3.2 8.0 0.00 0.00 0.00 91 1014.2
20260505073457 10 358 1.6 9.7 0.00 0.00 0.00 91 1014.2
20260505072958 10 26 0.0 4.8 0.00 0.00 0.00 92 1014.3
20260505071458 9 336 0.0 3.2 0.00 0.00 0.00 92 1014.3
20260505070958 9 336 0.0 3.2 0.00 0.00 0.00 93 1014.3
20260505070002 9 19 0.0 6.4 0.00 0.00 0.00 93 1014.3
20260505065458 9 23 0.0 6.4 0.00 0.00 0.00 93 1014.3
20260505064958 9 14 0.0 3.2 0.00 0.00 0.00 93 1014.2
20260505064459 9 38 0.0 3.2 0.00 0.00 0.00 94 1014.2
20260505063958 9 54 0.0 1.6 0.00 0.00 0.00 94 1014.3
20260505063457 9 54 0.0 1.6 0.00 0.00 0.00 94 1014.2
20260505062958 9 53 0.0 1.6 0.00 0.00 0.00 94 1014.2
20260505062458 9 348 0.0 0.0 0.00 0.00 0.00 94 1014.2
20260505061958 9 348 0.0 0.0 0.00 0.00 0.00 94 1014.3
20260505061458 8 348 0.0 1.6 0.00 0.00 0.00 95 1014.4
20260505060959 8 348 0.0 1.6 0.00 0.00 0.00 95 1014.3
20260505060458 8 349 0.0 1.6 0.00 0.00 0.00 95 1014.4
20260505060005 8 349 0.0 1.6 0.00 0.00 0.00 95 1014.3
20260505054958 8 349 0.0 0.0 0.00 0.00 0.00 95 1014.4
20260505052958 7 349 0.0 0.0 0.00 0.00 0.00 95 1014.4
20260505052459 7 349 0.0 0.0 0.00 0.00 0.00 95 1014.4
20260505051958 7 349 0.0 0.0 0.00 0.00 0.00 95 1014.3
20260505050958 7 349 0.0 0.0 0.00 0.00 0.00 95 1014.3
20260505050457 7 349 0.0 0.0 0.00 0.00 0.00 95 1014.3
20260505041458 6 1 0.0 3.2 0.00 0.00 0.00 95 1014.5
20260505040958 6 360 0.0 3.2 0.00 0.00 0.00 95 1014.5
20260505040458 6 334 0.0 0.0 0.00 0.00 0.00 94 1014.5
20260505040001 6 332 0.0 0.0 0.00 0.00 0.00 94 1014.4
20260505035458 6 332 0.0 0.0 0.00 0.00 0.00 94 1014.5
20260505034958 6 332 0.0 0.0 0.00 0.00 0.00 94 1014.4
20260505034458 6 332 0.0 0.0 0.00 0.00 0.00 94 1014.4
20260505033958 6 332 0.0 0.0 0.00 0.00 0.00 94 1014.5
20260505033458 6 332 0.0 0.0 0.00 0.00 0.00 95 1014.7
20260505032958 6 332 0.0 0.0 0.00 0.00 0.00 95 1014.6
20260505032458 5 332 0.0 0.0 0.00 0.00 0.00 94 1014.6
20260505031959 5 332 0.0 1.6 0.00 0.00 0.00 94 1014.5
20260505031457 5 332 0.0 1.6 0.00 0.00 0.00 94 1014.6
20260505030958 5 332 0.0 1.6 0.00 0.00 0.00 95 1014.7
20260505025457 5 332 0.0 0.0 0.00 0.00 0.00 94 1014.7
20260505024958 5 332 0.0 0.0 0.00 0.00 0.00 93 1014.7
20260505024458 5 333 0.0 0.0 0.00 0.00 0.00 94 1014.8
20260505022457 6 332 0.0 0.0 0.00 0.00 0.00 93 1014.8
20260505021458 6 333 0.0 1.6 0.00 0.00 0.00 93 1014.6
20260505021003 6 332 0.0 1.6 0.00 0.00 0.00 93 1014.5
20260505020458 6 332 0.0 0.0 0.00 0.00 0.00 94 1014.5
20260505020007 6 311 0.0 0.0 0.00 0.00 0.00 93 1014.7
20260505015458 6 311 0.0 0.0 0.00 0.00 0.00 93 1014.8
20260505015006 6 311 0.0 0.0 0.00 0.00 0.00 94 1014.9
20260505014457 6 311 0.0 0.0 0.00 0.00 0.00 94 1014.8
20260505014005 6 311 0.0 0.0 0.00 0.00 0.00 94 1015.0
20260505013457 6 291 0.0 0.0 0.00 0.00 0.00 93 1015.0
20260505013000 6 291 0.0 0.0 0.00 0.00 0.00 92 1015.2
20260505012457 6 291 0.0 0.0 0.00 0.00 0.00 92 1015.2
20260505011458 6 291 0.0 0.0 0.00 0.00 0.00 92 1015.1
20260505011006 6 291 0.0 0.0 0.00 0.00 0.00 92 1015.1
20260505010458 6 291 0.0 0.0 0.00 0.00 0.00 92 1015.1
20260505010009 7 291 0.0 0.0 0.00 0.00 0.00 91 1015.1
20260505005457 7 291 0.0 0.0 0.00 0.00 0.00 91 1015.1
20260505005005 7 291 0.0 0.0 0.00 0.00 0.00 91 1015.2
20260505004459 7 291 0.0 0.0 0.00 0.00 0.00 91 1015.2
20260505004004 7 291 0.0 0.0 0.00 0.00 0.00 91 1015.2
20260505003457 8 291 0.0 0.0 0.00 0.00 0.00 91 1015.2
20260505002959 8 291 0.0 0.0 0.00 0.00 0.00 91 1015.2
20260505002458 8 291 0.0 0.0 0.00 0.00 0.00 91 1015.3
20260505002006 8 291 0.0 0.0 0.00 0.00 0.00 90 1015.4
20260505001004 8 291 0.0 0.0 0.00 0.00 0.00 90 1015.2
20260505000458 9 291 0.0 0.0 0.00 0.00 0.00 90 1015.3
20260505000007 9 291 0.0 0.0 0.00 0.00 0.00 89 1015.4
20260504235457 9 291 0.0 0.0 0.00 0.00 0.00 89 1015.5
20260504235002 10 291 0.0 0.0 0.00 0.00 0.00 88 1015.6
20260504234502 10 291 0.0 0.0 0.00 0.00 0.00 88 1015.5
20260504234005 10 291 0.0 1.6 0.00 0.00 0.00 87 1015.6
20260504233502 10 291 0.0 1.6 0.00 0.00 0.00 87 1015.5
20260504233002 10 291 0.0 1.6 0.00 0.00 0.00 87 1015.5
20260504232502 11 291 0.0 1.6 0.00 0.00 0.00 87 1015.5
20260504232002 11 291 0.0 1.6 0.00 0.00 0.00 87 1015.5
20260504231002 11 291 0.0 3.2 0.00 0.00 0.00 87 1015.3
20260504230502 11 294 0.0 3.2 0.00 0.00 0.00 87 1015.5
20260504230007 11 348 0.0 3.2 0.00 0.00 0.00 86 1015.4
20260504225002 11 350 0.0 1.6 0.00 0.00 0.00 86 1015.6
20260504224502 11 351 0.0 1.6 0.00 0.00 0.00 86 1015.7
20260504224002 11 349 0.0 3.2 0.00 0.00 0.00 86 1015.6
20260504223502 11 317 0.0 1.6 0.00 0.00 0.00 86 1015.6
20260504223003 11 304 0.0 1.6 0.00 0.00 0.00 86 1015.6
20260504222501 11 300 0.0 1.6 0.00 0.00 0.00 86 1015.7
20260504222002 11 299 0.0 1.6 0.00 0.00 0.00 86 1015.7
20260504221502 11 295 0.0 1.6 0.00 0.00 0.00 86 1015.6
20260504221002 11 311 0.0 1.6 0.00 0.00 0.00 86 1015.7
20260504220501 11 307 0.0 4.8 0.00 0.00 0.00 86 1015.7
20260504220006 11 27 0.0 4.8 0.00 0.00 0.00 86 1015.7
20260504215502 11 6 0.0 3.2 0.00 0.05 0.00 86 1015.7
20260504214501 11 347 1.6 6.4 0.00 0.05 0.00 86 1015.8
20260504214001 11 339 1.6 6.4 0.00 0.05 0.00 86 1015.8
20260504213500 11 14 0.0 4.8 0.00 0.05 0.00 86 1015.7
20260504212500 11 24 1.6 3.2 0.00 0.05 0.00 86 1015.8
20260504212001 11 325 1.6 4.8 0.00 0.05 0.00 86 1015.8
20260504211500 11 337 0.0 4.8 0.00 0.05 0.00 85 1015.8
20260504211001 12 306 1.6 8.0 0.00 0.05 0.00 85 1015.7
20260504210501 12 15 1.6 8.0 0.00 0.05 0.00 85 1015.7
20260504210006 12 294 0.0 3.2 0.00 0.05 0.00 85 1015.8
20260504205500 12 7 0.0 6.4 0.00 0.08 0.00 85 1015.8
20260504205001 12 12 1.6 6.4 0.00 0.08 0.00 85 1015.8
20260504204501 12 27 1.6 6.4 0.00 0.08 0.00 85 1015.9
20260504204000 12 352 0.0 3.2 0.00 0.08 0.00 85 1015.9
20260504203500 12 357 0.0 3.2 0.00 0.08 0.00 85 1015.8
20260504203001 12 359 0.0 4.8 0.00 0.08 0.00 85 1015.9
20260504202500 12 32 0.0 4.8 0.00 0.08 0.00 85 1015.8
20260504202001 12 46 0.0 1.6 0.00 0.08 0.00 85 1015.9
20260504201501 12 48 0.0 1.6 0.00 0.08 0.00 85 1015.8
20260504200500 12 48 0.0 3.2 0.00 0.08 0.00 85 1015.7
20260504200004 12 48 0.0 3.2 0.00 0.08 0.00 85 1015.6
20260504195500 12 3 0.0 1.6 0.00 0.08 0.00 85 1015.7
20260504195001 12 3 0.0 3.2 0.00 0.08 0.00 85 1015.6
20260504194500 12 3 0.0 3.2 0.00 0.08 0.00 85 1015.6
20260504194000 12 3 0.0 3.2 0.00 0.08 0.00 84 1015.5
20260504193501 12 3 1.6 3.2 0.00 0.08 0.00 84 1015.5
20260504193001 12 332 1.6 3.2 0.00 0.08 0.00 84 1015.4
20260504192001 12 338 0.0 1.6 0.00 0.08 0.00 84 1015.3
20260504191502 12 330 0.0 1.6 0.00 0.08 0.00 84 1015.4
20260504191000 12 330 0.0 1.6 0.00 0.08 0.00 84 1015.3
20260504190501 12 287 0.0 4.8 0.00 0.08 0.00 84 1015.4
20260504190004 12 26 0.0 4.8 0.00 0.08 0.00 84 1015.3
20260504185501 13 10 0.0 1.6 0.00 0.08 0.00 84 1015.3
20260504185000 13 10 0.0 1.6 0.00 0.08 0.00 84 1015.3
20260504184501 13 11 0.0 3.2 0.00 0.08 0.00 83 1015.3